VE3BQM-WX Weather Reports


time (UTC)temp
F
wind
direction
speed
knots
gust
knots
rain 1hr
in
rain 24hr
in
rain mn
in
humidity
%
barometer
mb
20260901023605 72 291 1.7 6.1 0.00 0.12 0.00 96 981.9
20260901022703 72 310 2.6 5.2 0.00 0.12 0.00 97 982.0
20260901021805 72 294 1.7 7.8 0.00 0.12 0.00 97 982.0
20260901021118 72 301 1.7 7.8 0.00 0.12 0.00 96 982.0
20260901020216 72 308 1.7 5.2 0.00 0.12 0.00 96 982.2
20260901015403 72 293 1.7 4.3 0.00 0.12 0.00 96 982.5
20260901014504 72 278 1.7 4.3 0.00 0.12 0.00 97 982.5
20260901013603 72 284 0.0 4.3 0.00 0.12 0.00 97 982.7
20260901012703 72 315 2.6 4.3 0.00 0.12 0.00 97 982.6
20260901012017 73 307 1.7 6.1 0.00 0.12 0.00 97 982.7
20260901010903 73 290 1.7 4.3 0.00 0.12 0.00 98 982.5
20260901010005 73 287 0.9 2.6 0.00 0.12 0.00 99 982.7
20260901005406 73 302 0.9 3.5 0.00 0.12 0.00 99 982.8
20260901004504 73 316 0.0 3.5 0.00 0.12 0.00 99 982.8
20260901003605 73 310 0.0 3.5 0.00 0.12 0.00 99 982.7
20260901002703 73 301 0.0 3.5 0.00 0.12 0.00 99 982.7
20260901001803 73 287 0.0 1.7 0.00 0.12 0.00 99 982.8
20260901000904 73 318 0.9 1.7 0.00 0.12 0.00 99 982.9
20260901000005 74 313 0.0 1.7 0.00 0.12 0.00 99 983.0
20260831235405 74 356 0.0 5.2 0.00 0.12 0.00 99 982.9
20260831234503 74 269 0.0 5.2 0.00 0.12 0.00 98 983.0
20260831233603 74 225 0.0 7.0 0.00 0.12 0.00 98 982.9
20260831232703 74 0 0.0 0.0 0.00 0.12 0.00 97 982.9
20260831232018 74 330 0.0 1.7 0.00 0.12 0.00 97 983.0
20260831230903 75 18 0.0 1.7 0.00 0.12 0.00 96 983.0
20260831230006 75 328 0.0 1.7 0.00 0.12 0.00 94 983.0
20260831225614 76 328 0.0 1.7 0.00 0.12 0.12 94 983.0
20260831224716 76 315 0.0 1.7 0.00 0.12 0.12 93 983.1
20260831223604 77 237 0.0 3.5 0.00 0.12 0.12 92 983.0
20260831222703 77 225 0.0 1.7 0.00 0.12 0.12 91 983.2
20260831221805 77 268 0.0 1.7 0.00 0.12 0.12 90 983.2
20260831220905 77 242 1.7 3.5 0.00 0.12 0.12 89 983.2
20260831220004 78 248 0.0 3.5 0.00 0.12 0.12 88 983.3
20260831215405 78 237 1.7 3.5 0.00 0.12 0.12 87 983.3
20260831214503 78 262 0.9 3.5 0.00 0.12 0.12 87 983.4
20260831213603 78 312 0.9 2.6 0.00 0.12 0.12 86 983.4
20260831212705 79 277 0.9 4.3 0.00 0.12 0.12 86 983.5
20260831212014 79 229 1.7 3.5 0.00 0.12 0.12 87 983.5
20260831210905 79 264 1.7 6.1 0.00 0.12 0.12 86 983.6
20260831210003 80 291 1.7 7.0 0.00 0.13 0.12 84 983.5
20260831205405 81 17 2.6 3.5 0.00 0.13 0.12 86 983.5
20260831204505 79 254 0.0 5.2 0.00 0.13 0.12 93 983.5
20260831203605 77 250 1.7 5.2 0.00 0.13 0.12 93 984.0
20260831202705 76 262 0.0 5.2 0.00 0.13 0.12 94 984.1
20260831201805 76 253 2.6 5.2 0.00 0.13 0.12 92 984.2
20260831200906 77 282 0.9 3.5 0.00 0.13 0.12 92 984.2
20260831200214 77 300 1.7 4.3 0.00 0.13 0.12 95 984.3
20260831195404 76 328 2.6 5.2 0.00 0.13 0.12 95 984.4
20260831194504 75 305 1.7 7.0 0.00 0.13 0.12 97 984.4
20260831193816 75 291 1.7 7.0 0.00 0.13 0.12 97 984.6
20260831192705 75 338 1.7 4.3 0.00 0.13 0.12 99 984.6
20260831192015 75 352 0.9 4.3 0.00 0.13 0.12 99 984.7
20260831190903 74 314 1.7 3.5 0.00 0.13 0.12 99 984.7
20260831190005 74 355 0.0 6.1 0.00 0.13 0.12 99 984.7
20260831185403 74 292 0.9 6.1 0.00 0.13 0.12 99 984.6
20260831184714 74 263 0.0 2.6 0.00 0.13 0.12 99 984.6
20260831183603 74 337 0.0 3.5 0.00 0.13 0.12 99 984.9
20260831182914 74 334 0.0 3.5 0.00 0.13 0.12 99 984.8
20260831181803 73 326 0.0 4.3 0.00 0.13 0.12 99 984.9
20260831180904 72 245 0.9 2.6 0.00 0.13 0.12 99 985.0
20260831180216 71 318 0.0 3.5 0.00 0.13 0.12 99 985.1
20260831175617 71 13 0.9 4.3 0.00 0.13 0.12 99 985.2
20260831174503 71 321 0.9 3.5 0.00 0.13 0.12 99 985.2
20260831173605 71 5 0.0 3.5 0.00 0.13 0.12 99 985.2
20260831172703 71 304 1.7 3.5 0.00 0.13 0.12 99 985.2
20260831171803 71 295 1.7 3.5 0.00 0.13 0.12 99 985.2
20260831170903 71 295 1.7 3.5 0.00 0.13 0.12 99 985.3
20260831170216 71 304 1.7 5.2 0.00 0.13 0.12 99 985.3
20260831165404 71 295 2.6 3.5 0.00 0.13 0.12 99 985.5
20260831164505 71 2 0.9 5.2 0.00 0.13 0.12 99 985.4
20260831163812 71 266 0.9 7.0 0.00 0.13 0.12 99 985.5
20260831162706 71 280 1.7 3.5 0.00 0.13 0.12 99 985.2
20260831162017 71 266 1.7 5.2 0.00 0.13 0.12 99 985.5
20260831160908 71 303 1.7 6.1 0.00 0.13 0.12 99 985.4
20260831160008 70 300 1.7 4.3 0.00 0.13 0.12 99 985.5
20260831155403 70 322 1.7 3.5 0.00 0.13 0.12 99 985.4
20260831154505 70 335 0.9 4.3 0.00 0.13 0.12 99 985.5
20260831153604 70 289 0.0 3.5 0.00 0.13 0.12 99 985.4
20260831152703 70 255 0.0 6.1 0.00 0.13 0.12 99 985.4
20260831151803 70 305 1.7 6.1 0.00 0.13 0.12 99 985.5
20260831151115 69 341 0.0 5.2 0.00 0.13 0.12 99 985.5
20260831150005 69 324 0.9 5.2 0.00 0.13 0.12 99 985.5
20260831145405 69 321 0.0 5.2 0.00 0.13 0.12 99 985.5
20260831144504 69 307 1.7 3.5 0.00 0.13 0.12 99 985.3
20260831143605 69 261 1.7 2.6 0.00 0.13 0.12 99 985.1
20260831142705 69 285 0.9 2.6 0.00 0.13 0.12 99 985.2
20260831141803 69 225 0.9 1.7 0.00 0.13 0.12 99 985.0
20260831141116 68 225 0.0 0.9 0.00 0.13 0.12 99 984.9
20260831134505 68 224 0.9 2.6 0.01 0.13 0.12 99 984.7
20260831133605 67 230 0.0 3.5 0.02 0.13 0.12 99 984.9
20260831132705 67 230 0.9 2.6 0.02 0.13 0.12 99 984.8
20260831131803 67 225 0.9 4.3 0.02 0.13 0.12 99 984.8
20260831131122 67 225 0.0 7.8 0.02 0.13 0.12 99 984.9
20260831123605 67 225 0.0 2.6 0.00 0.11 0.09 99 985.2
20260831122705 66 225 0.0 2.6 0.00 0.11 0.09 99 985.2
20260831121804 66 225 0.0 2.6 0.00 0.11 0.09 99 985.1
20260831121117 66 238 0.0 2.6 0.00 0.11 0.09 99 985.1
20260831120005 66 225 0.9 2.6 0.00 0.11 0.09 99 985.2
20260831115405 66 0 0.0 0.0 0.00 0.11 0.09 99 985.2
20260831114505 66 0 0.0 0.0 0.00 0.11 0.09 99 985.3
20260831113605 66 0 0.0 0.0 0.00 0.11 0.09 99 985.5
20260831112703 66 0 0.0 0.0 0.00 0.11 0.09 99 985.5
20260831111803 66 0 0.0 0.0 0.00 0.11 0.09 99 985.6
20260831110903 66 0 0.0 0.0 0.00 0.11 0.09 99 985.5
20260831110003 66 0 0.0 0.0 0.00 0.11 0.09 99 985.5
20260831105403 66 0 0.0 0.0 0.00 0.11 0.09 99 985.4
20260831104504 66 231 0.0 2.6 0.00 0.11 0.09 99 985.2
20260831103605 66 292 0.0 1.7 0.00 0.12 0.09 99 985.2
20260831102703 66 225 0.0 5.2 0.00 0.12 0.09 99 985.4
20260831101805 66 309 0.0 3.5 0.00 0.12 0.09 99 985.3
20260831100903 66 329 0.0 1.7 0.00 0.12 0.09 99 985.5
20260831100007 66 300 0.0 3.5 0.00 0.13 0.09 99 985.4
20260831095406 66 87 0.0 3.5 0.00 0.13 0.09 99 985.3
20260831094503 66 322 0.9 3.5 0.00 0.13 0.09 99 985.3
20260831093603 66 294 1.7 7.0 0.00 0.13 0.09 99 985.2
20260831092703 66 305 0.9 7.0 0.00 0.14 0.09 99 985.7
20260831091806 66 348 0.0 2.6 0.00 0.14 0.09 99 985.7
20260831090905 66 0 0.0 0.0 0.01 0.14 0.09 99 985.6
20260831090005 66 201 0.0 1.7 0.01 0.15 0.09 99 985.5
20260831085405 66 241 0.0 3.5 0.01 0.17 0.09 99 985.5
20260831084503 66 225 0.0 2.6 0.01 0.17 0.09 99 985.4
20260831083605 66 225 0.0 3.5 0.01 0.17 0.09 99 985.6
20260831082915 66 316 0.0 2.6 0.02 0.18 0.09 99 985.8
20260831081805 66 225 0.0 13.0 0.02 0.19 0.09 99 985.8
20260831080905 66 0 0.0 0.0 0.01 0.18 0.08 99 985.7
20260831080005 66 219 0.0 1.7 0.01 0.18 0.08 99 985.8
20260831075404 66 233 0.0 1.7 0.01 0.18 0.08 99 985.8
20260831074503 66 225 0.9 2.6 0.01 0.18 0.08 99 985.7
20260831073603 66 213 0.0 2.6 0.02 0.18 0.08 99 985.9
20260831072703 66 235 1.7 3.5 0.02 0.17 0.07 99 985.9
20260831072018 66 257 0.9 3.5 0.04 0.17 0.07 99 985.9
20260831070905 66 225 0.9 2.6 0.04 0.17 0.07 99 986.2
20260831070218 66 227 0.0 2.6 0.04 0.17 0.07 99 986.5
20260831065404 66 240 0.0 5.2 0.05 0.17 0.07 99 986.5
20260831064508 66 236 0.0 4.3 0.05 0.17 0.07 99 986.6
20260831063603 66 248 0.9 2.6 0.04 0.17 0.06 99 986.4
20260831062706 66 127 0.9 1.7 0.02 0.15 0.05 99 986.6
20260831062019 66 0 0.0 0.0 0.01 0.14 0.04 99 986.7
20260831061116 66 0 0.0 0.0 0.01 0.14 0.04 99 986.7
20260831060005 66 135 0.0 2.6 0.01 0.15 0.04 99 986.8
20260831055403 66 201 0.0 2.6 0.00 0.14 0.02 99 986.8
20260831054717 66 250 0.9 2.6 0.01 0.14 0.02 99 986.9
20260831053814 66 225 0.0 3.5 0.01 0.14 0.02 99 986.9
20260831052705 66 219 0.9 3.5 0.02 0.14 0.02 99 986.8
20260831052019 66 258 0.9 2.6 0.02 0.14 0.02 99 986.7
20260831050905 66 225 0.0 1.7 0.02 0.14 0.02 99 986.8
20260831050004 66 228 0.9 3.5 0.02 0.14 0.02 99 986.8
20260831045615 66 240 0.0 3.5 0.02 0.14 0.02 99 986.9
20260831044503 66 238 0.0 1.7 0.01 0.13 0.01 99 987.0
20260831043820 66 0 0.0 0.0 0.01 0.13 0.01 99 986.9
20260831042703 66 225 0.0 3.5 0.00 0.12 0.00 99 986.7
20260831042020 66 225 0.0 1.7 0.00 0.12 0.00 99 986.6
20260831040905 67 234 0.0 3.5 0.00 0.12 0.00 99 986.6
20260831040005 66 240 0.0 1.7 0.00 0.12 0.00 99 986.5
20260831035406 67 248 0.0 1.7 0.00 0.12 0.00 99 986.6
20260831034504 66 343 0.0 1.7 0.00 0.12 0.00 99 986.7
20260831033604 66 285 0.0 1.7 0.00 0.12 0.00 99 986.6
20260831032705 66 0 0.0 0.0 0.00 0.12 0.00 99 986.7
20260831031805 66 0 0.0 0.0 0.00 0.12 0.00 99 986.6
20260831030905 66 0 0.0 0.0 0.00 0.12 0.00 99 986.6
20260831030003 66 115 0.0 1.7 0.00 0.12 0.00 99 986.6
20260831025406 66 119 0.0 1.7 0.00 0.12 0.00 99 986.7
20260831024714 66 0 0.0 0.0 0.00 0.12 0.00 99 986.7